TimeCST,TemperatureF,Dew PointF,Humidity,Sea Level PressureIn,VisibilityMPH,Wind Direction,Wind SpeedMPH,Gust SpeedMPH,PrecipitationIn,Events,Conditions,WindDirDegrees,DateUTC
12:15 AM,12.2,8.6,85,30.32,10.0,SW,5.8,-,N/A,,Clear,230,2013-01-04 06:15:00
12:35 AM,12.6,8.8,85,30.31,10.0,SW,5.8,-,N/A,,Clear,230,2013-01-04 06:35:00
12:55 AM,13.5,10.0,86,30.30,10.0,SW,5.8,-,N/A,,Clear,230,2013-01-04 06:55:00
1:15 AM,14.0,10.2,85,30.29,10.0,SW,5.8,-,N/A,,Clear,230,2013-01-04 07:15:00
1:35 AM,14.4,10.4,84,30.29,10.0,SW,5.8,-,N/A,,Clear,220,2013-01-04 07:35:00
1:55 AM,14.9,11.1,85,30.29,10.0,SW,6.9,-,N/A,,Clear,230,2013-01-04 07:55:00
2:15 AM,14.9,10.9,84,30.30,10.0,SW,4.6,-,N/A,,Clear,230,2013-01-04 08:15:00
2:35 AM,16.2,11.8,83,30.30,10.0,SW,8.1,-,N/A,,Clear,230,2013-01-04 08:35:00
3:15 AM,16.7,12.2,82,30.29,10.0,SW,10.4,-,N/A,,Clear,230,2013-01-04 09:15:00
6:15 AM,21.9,17.6,83,30.26,10.0,WSW,10.4,23.0,N/A,,Clear,240,2013-01-04 12:15:00
6:35 AM,22.1,17.6,83,30.25,10.0,SW,12.7,18.4,N/A,,Clear,230,2013-01-04 12:35:00
7:15 AM,20.5,16.5,85,30.26,10.0,SW,10.4,19.6,N/A,,Clear,230,2013-01-04 13:15:00
7:35 AM,20.1,16.3,85,30.25,10.0,SW,8.1,-,N/A,,Clear,230,2013-01-04 13:35:00
7:55 AM,20.3,16.7,86,30.25,10.0,SW,10.4,-,N/A,,Clear,230,2013-01-04 13:55:00
8:15 AM,20.8,16.7,84,30.25,10.0,SW,11.5,-,N/A,,Clear,220,2013-01-04 14:15:00
8:35 AM,21.9,17.4,83,30.25,10.0,SW,11.5,-,N/A,,Clear,220,2013-01-04 14:35:00
8:55 AM,23.0,18.1,82,30.25,10.0,SSW,11.5,-,N/A,,Clear,210,2013-01-04 14:55:00
9:15 AM,24.8,18.5,77,30.26,10.0,WSW,11.5,-,N/A,,Clear,240,2013-01-04 15:15:00
9:35 AM,25.5,18.7,75,30.26,10.0,SW,9.2,-,N/A,,Clear,230,2013-01-04 15:35:00
9:55 AM,27.3,19.4,72,30.26,10.0,WSW,10.4,-,N/A,,Clear,240,2013-01-04 15:55:00
10:15 AM,29.3,20.1,69,30.27,10.0,WSW,10.4,-,N/A,,Clear,240,2013-01-04 16:15:00
10:35 AM,30.2,20.3,67,30.27,10.0,WSW,11.5,18.4,N/A,,Clear,240,2013-01-04 16:35:00
10:55 AM,31.5,21.0,65,30.27,10.0,WSW,10.4,17.3,N/A,,Clear,240,2013-01-04 16:55:00
11:15 AM,32.2,21.2,64,30.25,10.0,WSW,12.7,-,N/A,,Clear,240,2013-01-04 17:15:00
11:35 AM,33.4,21.4,61,30.25,10.0,WSW,11.5,18.4,N/A,,Clear,240,2013-01-04 17:35:00
11:55 AM,34.0,21.9,61,30.24,10.0,WSW,9.2,-,N/A,,Clear,250,2013-01-04 17:55:00
12:15 PM,34.9,21.7,59,30.23,10.0,WSW,11.5,21.9,N/A,,Clear,240,2013-01-04 18:15:00
12:35 PM,34.9,21.2,57,30.22,10.0,WSW,11.5,23.0,N/A,,Clear,240,2013-01-04 18:35:00
12:55 PM,35.8,21.7,57,30.21,10.0,WSW,13.8,20.7,N/A,,Clear,240,2013-01-04 18:55:00
1:15 PM,36.3,21.9,56,30.21,10.0,WSW,9.2,-,N/A,,Clear,250,2013-01-04 19:15:00
1:35 PM,37.9,22.6,54,30.20,10.0,WSW,9.2,-,N/A,,Clear,250,2013-01-04 19:35:00
1:55 PM,38.5,22.5,53,30.20,10.0,WSW,11.5,16.1,N/A,,Clear,240,2013-01-04 19:55:00
2:15 PM,38.7,22.1,51,30.20,10.0,WSW,10.4,16.1,N/A,,Clear,240,2013-01-04 20:15:00
2:35 PM,39.2,22.1,50,30.19,10.0,SW,9.2,-,N/A,,Clear,230,2013-01-04 20:35:00
2:55 PM,39.2,21.7,50,30.20,10.0,WSW,11.5,-,N/A,,Clear,240,2013-01-04 20:55:00
3:15 PM,39.2,21.7,50,30.20,10.0,WSW,10.4,16.1,N/A,,Clear,240,2013-01-04 21:15:00
3:35 PM,39.2,23.0,52,30.20,10.0,SW,9.2,-,N/A,,Clear,230,2013-01-04 21:35:00
3:55 PM,39.2,22.1,50,30.21,10.0,WSW,8.1,-,N/A,,Clear,240,2013-01-04 21:55:00
4:15 PM,38.7,21.9,51,30.20,10.0,SW,9.2,-,N/A,,Clear,230,2013-01-04 22:15:00
4:35 PM,37.8,21.9,53,30.20,10.0,WSW,6.9,-,N/A,,Clear,240,2013-01-04 22:35:00
4:55 PM,36.5,21.7,55,30.21,10.0,WSW,6.9,-,N/A,,Clear,240,2013-01-04 22:55:00
5:15 PM,35.1,21.6,58,30.21,10.0,SW,4.6,-,N/A,,Clear,230,2013-01-04 23:15:00
5:35 PM,34.7,21.7,59,30.21,10.0,SW,5.8,-,N/A,,Clear,220,2013-01-04 23:35:00
5:55 PM,33.8,21.9,62,30.21,10.0,SW,6.9,-,N/A,,Clear,220,2013-01-04 23:55:00
6:15 PM,33.8,21.9,62,30.22,10.0,SW,8.1,-,N/A,,Clear,220,2013-01-05 00:15:00
6:35 PM,33.3,21.6,62,30.22,10.0,SSW,8.1,-,N/A,,Clear,210,2013-01-05 00:35:00
6:55 PM,33.1,21.6,63,30.22,10.0,SSW,9.2,-,N/A,,Clear,210,2013-01-05 00:55:00
7:15 PM,33.3,21.7,63,30.22,10.0,SW,8.1,-,N/A,,Clear,220,2013-01-05 01:15:00
7:35 PM,32.9,21.7,64,30.21,10.0,SW,8.1,-,N/A,,Clear,230,2013-01-05 01:35:00
7:55 PM,32.5,21.7,64,30.20,10.0,SW,8.1,-,N/A,,Clear,230,2013-01-05 01:55:00
8:15 PM,32.4,21.7,65,30.20,10.0,SW,8.1,-,N/A,,Clear,220,2013-01-05 02:15:00
8:35 PM,31.8,21.6,66,30.20,10.0,SSW,6.9,-,N/A,,Clear,210,2013-01-05 02:35:00
8:55 PM,31.1,21.6,68,30.20,10.0,SSW,8.1,-,N/A,,Clear,210,2013-01-05 02:55:00
9:15 PM,30.9,21.7,69,30.20,10.0,SSW,8.1,-,N/A,,Clear,210,2013-01-05 03:15:00
9:35 PM,30.6,21.6,69,30.20,10.0,SW,9.2,-,N/A,,Clear,220,2013-01-05 03:35:00
9:55 PM,29.8,21.6,71,30.20,10.0,SW,6.9,-,N/A,,Clear,220,2013-01-05 03:55:00
10:15 PM,29.5,21.6,72,30.20,10.0,SW,4.6,-,N/A,,Clear,220,2013-01-05 04:15:00
10:35 PM,28.9,21.2,73,30.20,10.0,SSW,4.6,-,N/A,,Clear,210,2013-01-05 04:35:00
10:55 PM,27.5,20.8,76,30.20,10.0,SSW,3.5,-,N/A,,Clear,200,2013-01-05 04:55:00
11:15 PM,27.5,21.2,77,30.19,10.0,SSW,4.6,-,N/A,,Clear,200,2013-01-05 05:15:00
11:35 PM,27.1,21.2,78,30.19,10.0,SSW,5.8,-,N/A,,Clear,200,2013-01-05 05:35:00
11:55 PM,27.5,21.7,79,30.19,10.0,SSW,5.8,-,N/A,,Clear,200,2013-01-05 05:55:00